Date String (YYYY-MM-DD hh:mm:ss) UTC,Instrument flags,Ambient pressure (hPa),Sample flow (lpm),Bypass flow (lpm),Sample temperature (°C),Ambient temperature (°C),ASC tube jacket temperature (°C),LED temperature (°C),Box temperature (°C),Sample RH (%),Span deviation,Mass concentration (μg/m³),Mass concentration (μg/m³),Mass concentration (μg/m³)
DateTimeUTC,F1_M11,P_M11,Q1_M11,Q2_M11,T1_M11,T2_M11,T3_M11,T4_M11,T5_M11,U1_M11,ZSPAN_M11,X0_M11,X2_M11,X1_M11
2021-09-03 21:00:00,,0827.2,5.00,0.00,29.7,25.9,00.0,38.9,30.9,27.0,0001.7,0010.65,0008.17,0007.87
2021-09-03 21:01:00,,0827.2,4.99,0.00,29.6,26.3,00.0,38.9,30.9,26.7,0001.7,0010.47,0008.16,0007.86
2021-09-03 21:02:00,,0827.2,5.01,0.00,29.6,26.8,00.0,38.8,31.0,26.5,0001.8,0010.76,0008.13,0007.86
2021-09-03 21:03:00,,0827.2,4.99,0.00,29.6,27.2,00.0,38.8,31.1,26.1,0002.1,0011.00,0008.13,0007.88
2021-09-03 21:04:00,,0827.2,5.02,0.00,29.6,27.6,00.0,38.7,31.2,26.0,0002.1,0011.01,0008.15,0007.89
2021-09-03 21:05:00,,0827.2,4.99,0.00,29.6,27.9,00.0,38.7,31.3,26.7,0002.1,0011.03,0008.16,0007.91
2021-09-03 21:06:00,,0827.1,5.00,0.00,29.7,28.2,00.0,38.7,31.3,27.3,0002.1,0011.05,0008.21,0007.97
2021-09-03 21:07:00,,0827.2,5.01,0.00,29.7,28.4,00.0,38.7,31.4,27.0,0002.1,0011.22,0008.34,0008.08
2021-09-03 21:08:00,,0827.2,4.99,0.00,29.7,28.6,00.0,38.7,31.5,26.9,0002.2,0011.30,0008.44,0008.19
2021-09-03 21:09:00,,0827.2,5.00,0.00,29.8,28.7,00.0,38.7,31.5,26.4,0002.3,0011.43,0008.58,0008.31
2021-09-03 21:10:00,,0827.2,4.99,0.00,29.8,28.8,00.0,38.8,31.6,26.5,0002.3,0011.55,0008.70,0008.44
2021-09-03 21:11:00,,0827.2,5.00,0.00,29.9,29.0,00.0,38.8,31.7,26.2,0002.1,0011.66,0008.79,0008.54
2021-09-03 21:12:00,,0827.2,5.01,0.00,29.9,28.3,00.0,38.8,31.5,26.1,0002.0,0011.82,0008.92,0008.66
2021-09-03 21:13:00,,0827.1,5.01,0.00,29.8,26.6,00.0,38.8,31.1,26.4,0002.1,0011.77,0009.10,0008.79
2021-09-03 21:14:00,,0827.1,5.00,0.00,29.6,26.0,00.0,38.8,30.8,27.2,0001.7,0011.54,0009.24,0008.94
2021-09-03 21:15:00,,0827.2,4.99,0.00,29.5,26.2,00.0,38.7,30.9,27.1,0001.5,0011.73,0009.41,0009.11
2021-09-03 21:16:00,,0827.2,5.00,0.00,29.5,26.6,00.0,38.7,31.0,26.3,0001.6,0012.10,0009.56,0009.26
2021-09-03 21:17:00,,0827.2,5.01,0.00,29.5,27.1,00.0,38.6,31.1,24.4,0001.7,0012.14,0009.62,0009.32
2021-09-03 21:18:00,,0827.2,4.98,0.00,29.5,27.5,00.0,38.6,31.2,23.9,0001.7,0012.08,0009.61,0009.33
2021-09-03 21:19:00,,0827.1,5.01,0.00,29.5,27.9,00.0,38.6,31.2,24.7,0001.7,0012.13,0009.64,0009.36
2021-09-03 21:20:00,,0827.1,4.99,0.00,29.6,28.1,00.0,38.6,31.3,25.7,0001.7,0012.16,0009.66,0009.38
2021-09-03 21:21:00,,0827.0,5.00,0.00,29.6,28.4,00.0,38.6,31.4,25.8,0001.6,0012.83,0009.69,0009.43
2021-09-03 21:22:00,,0827.3,5.01,0.00,29.7,28.6,00.0,38.6,31.4,25.1,0001.6,0012.94,0009.76,0009.49
2021-09-03 21:23:00,,0827.4,5.00,0.00,29.7,28.7,00.0,38.6,31.5,24.1,0001.7,0012.95,0009.82,0009.55
2021-09-03 21:24:00,,0827.3,5.00,0.00,29.8,28.9,00.0,38.7,31.6,24.0,0001.7,0012.96,0009.85,0009.62
2021-09-03 21:25:00,,0827.0,5.00,0.00,29.8,29.0,00.0,38.7,31.6,24.3,0001.7,0012.99,0009.89,0009.67
2021-09-03 21:26:00,,0827.0,5.01,0.00,29.8,28.0,00.0,38.7,31.4,24.9,0002.1,0013.03,0009.94,0009.72
2021-09-03 21:27:00,,0827.0,4.99,0.00,29.7,26.4,00.0,38.7,31.0,25.2,0002.2,0013.16,0010.04,0009.81
2021-09-03 21:28:00,,0827.0,5.00,0.00,29.5,25.9,00.0,38.7,30.8,25.4,0002.0,0014.13,0010.18,0009.93
2021-09-03 21:29:00,,0827.0,5.00,0.00,29.5,26.2,00.0,38.7,30.9,25.8,0001.9,0014.24,0010.29,0010.05
2021-09-03 21:30:00,,0827.0,5.00,0.00,29.4,26.7,00.0,38.6,30.9,26.1,0001.9,0014.32,0010.37,0010.14
2021-09-03 21:31:00,,0827.0,5.00,0.00,29.4,27.2,00.0,38.6,31.0,26.0,0002.0,0014.39,0010.44,0010.20
2021-09-03 21:32:00,,0827.0,4.99,0.00,29.4,27.6,00.0,38.5,31.1,25.8,0002.2,0013.78,0010.49,0010.23
2021-09-03 21:33:00,,0827.0,5.00,0.00,29.5,27.9,00.0,38.5,31.2,25.8,0002.3,0013.75,0010.48,0010.24
2021-09-03 21:34:00,,0827.0,4.99,0.00,29.5,28.2,00.0,38.5,31.3,25.7,0002.2,0013.70,0010.47,0010.24
2021-09-03 21:35:00,,0827.0,5.01,0.00,29.5,28.4,00.0,38.5,31.4,25.4,0002.2,0013.67,0010.43,0010.21
2021-09-03 21:36:00,,0827.0,5.00,0.00,29.6,28.6,00.0,38.6,31.4,25.8,0002.6,0013.69,0010.42,0010.17
2021-09-03 21:37:00,,0827.0,5.00,0.00,29.7,28.7,00.0,38.6,31.5,25.9,0002.4,0013.77,0010.38,0010.12
2021-09-03 21:38:00,,0827.0,5.02,0.00,29.7,28.8,00.0,38.6,31.6,25.7,0002.3,0013.83,0010.30,0010.03
2021-09-03 21:39:00,,0827.1,4.99,0.00,29.7,28.9,00.0,38.6,31.6,25.8,0002.2,0012.81,0010.22,0009.96
2021-09-03 21:40:00,,0827.0,5.01,0.00,29.7,27.8,00.0,38.6,31.3,25.8,0002.4,0012.77,0010.18,0009.91
2021-09-03 21:41:00,,0827.4,5.01,0.00,29.6,26.1,00.0,38.6,30.8,26.0,0002.3,0012.77,0010.17,0009.90
2021-09-03 21:42:00,,0827.3,5.00,0.00,29.4,25.9,00.0,38.6,30.7,26.1,0002.3,0012.71,0010.11,0009.82
2021-09-03 21:43:00,,0827.3,5.00,0.00,29.4,26.2,00.0,38.6,30.8,25.9,0002.1,0012.57,0010.00,0009.73
2021-09-03 21:44:00,,0827.3,5.00,0.00,29.3,26.7,00.0,38.5,30.9,25.9,0001.9,0012.53,0009.93,0009.64
2021-09-03 21:45:00,,0827.5,4.99,0.00,29.3,27.2,00.0,38.5,31.0,26.1,0001.9,0012.50,0009.88,0009.58
2021-09-03 21:46:00,,0827.3,5.01,0.00,29.4,27.6,00.0,38.5,31.1,25.7,0001.5,0012.43,0009.83,0009.53
2021-09-03 21:47:00,,0827.0,4.99,0.00,29.4,27.9,00.0,38.5,31.2,26.4,0001.3,0012.38,0009.80,0009.50
2021-09-03 21:48:00,,0827.1,5.01,0.00,29.4,28.1,00.0,38.5,31.3,26.1,0001.3,0012.25,0009.79,0009.49
2021-09-03 21:49:00,,0827.0,5.02,0.00,29.5,28.4,00.0,38.5,31.3,25.5,0001.3,0012.06,0009.79,0009.50
2021-09-03 21:50:00,,0827.0,5.01,0.00,29.5,28.5,00.0,38.5,31.4,26.1,0001.4,0011.98,0009.73,0009.44
2021-09-03 21:51:00,,0827.0,4.99,0.00,29.6,28.7,00.0,38.6,31.5,27.9,0001.3,0012.08,0009.56,0009.28
2021-09-03 21:52:00,,0827.1,4.99,0.00,29.7,28.8,00.0,38.6,31.5,28.1,0001.2,0011.90,0009.36,0009.09
2021-09-03 21:53:00,,0827.1,5.01,0.00,29.7,28.9,00.0,38.6,31.6,28.2,0001.0,0011.83,0009.21,0008.95
2021-09-03 21:54:00,,0827.0,5.00,0.00,29.7,28.4,00.0,38.6,31.5,27.6,0000.9,0011.69,0009.08,0008.83
2021-09-03 21:55:00,,0827.0,5.01,0.00,29.6,26.6,00.0,38.6,31.0,26.8,0001.1,0011.50,0008.93,0008.70
2021-09-03 21:56:00,,0826.9,5.00,0.00,29.5,25.8,00.0,38.6,30.8,27.6,0001.2,0011.46,0008.85,0008.60
2021-09-03 21:57:00,,0826.9,4.99,0.00,29.4,26.1,00.0,38.6,30.8,27.6,0001.3,0011.37,0008.73,0008.48
2021-09-03 21:58:00,,0826.9,5.00,0.00,29.3,26.6,00.0,38.5,30.9,27.0,0001.0,0011.25,0008.62,0008.38
2021-09-03 21:59:00,,0826.9,5.01,0.00,29.3,27.0,00.0,38.5,31.0,26.4,0000.8,0011.14,0008.51,0008.29
